Location: Caltech
(34.1382°N, 118.1253°W)
Time: 20:53:23
(UTC-07:00)

Saudisat 1A - Visible Passes

Search period start: 19 August 2017 00:00
Search period end: 29 August 2017 00:00
Orbit: 580 x 612 km, 64.6° (Epoch: 19 August)

Date Brightness Start Highest point End Pass type
(mag) Time Alt. Az. Time Alt. Az. Time Alt. Az.
19 Aug 10.0 21:26:47 10° N 21:29:15 17° NE 21:29:15 17° NE visible
19 Aug 10.9 23:05:08 10° NW 23:05:54 15° NW 23:05:54 15° NW visible
20 Aug 9.4 21:35:58 10° N 21:38:57 27° NNE 21:38:57 27° NNE visible
21 Aug 8.9 21:45:32 10° NNW 21:48:43 42° N 21:48:43 42° N visible
22 Aug 10.2 20:18:37 10° NNE 20:19:48 11° NE 20:21:00 10° ENE visible
22 Aug 8.9 21:55:22 10° NNW 21:58:32 46° NW 21:58:32 46° NW visible
23 Aug 9.7 20:26:54 10° N 20:30:02 19° NE 20:31:46 15° E visible
23 Aug 9.6 22:05:32 10° NW 22:08:26 31° W 22:08:26 31° W visible
24 Aug 8.9 20:36:11 10° N 20:40:08 33° NE 20:41:44 25° E visible
24 Aug 10.3 22:16:10 10° WNW 22:18:24 18° W 22:18:24 18° W visible
25 Aug 8.0 20:45:48 10° NNW 20:50:08 63° ENE 20:51:46 35° SE visible
26 Aug 8.2 20:55:42 10° NW 21:00:02 66° WSW 21:01:55 32° S visible
27 Aug 9.5 21:05:56 10° NW 21:09:50 32° WSW 21:12:10 19° SSW visible
28 Aug 10.5 21:16:44 10° WNW 21:19:33 17° WSW 21:22:20 10° SSW visible
